User: anonymous   Login
Location: Unspecified
(0.0000°N, 0.0000°E)
Time: 00:33:43
(UTC+00:00)
Language:

IBEX - Orbit

View from above orbital plane
View from above orbital plane
View from above satellite
View from above satellite

Ground track
Ground track

The orbit data is extracted from the following two-line orbital elements,

1 33401U 08051A   15244.40391231 -.00003049  00000-0  00000+0 0  9990
2 33401 017.5056 094.1754 6507238 079.1390 001.7606 00.11563429  2910
Epoch (UTC): 01 September 2015 09:41:38
Eccentricity: 0.6507238
inclination: 17.5056°
perigee height: 55781 km
apogee height: 287396 km
right ascension of ascending node: 94.1754°
argument of perigee: 79.1390°
revolutions per day: 0.11563429
mean anomaly at epoch: 1.7606°
orbit number at epoch: 291

The dashed part of the orbit path shows where the satellite is in the earth's shadow,  

DLR